Find SCISAT-1

NORAD ID: 27858 Int'l Des: 2003-036 Owner: CSA Country: CA operational
LEOCIRCULAR

Live Position

Loading 3D Globe...

About SCISAT-1

Description loading...

Upcoming Passes

Passes for default location (London). Set your location on the main map for personalized predictions.

Altitude History

Loading altitude history...

Two-Line Element Set

1 27858U 03036A 26106.90731780 .00000396 00000-0 55374-4 0 9998
2 27858 73.9286 293.0926 0007056 1.6988 358.4211 14.81376289222377
Epoch: Apr 16, 2026 • Age: 10 hours

Current Status

Altitude 635.2 km
Velocity 7.54 km/s
Sub-Earth Point -37.66°S, 35.77°W
Launch Date Aug 13, 2003
Age 22.6 years
Type other

Technical Details

Classification Payload
Mass 150.00 kg
Dry Mass 150.00 kg
Total Mass 150.00 kg
Length 0.60 m
Diameter 1.10 m
Span 1.10 m
Shape Cyl
Manufacturer BRIS
Bus Type MAC-100
Phase Status In Orbit
Owner/State CSA/CA

Most Searched